Weather History for Lapeer, MI

Change the Weather History Date:

Wednesday, November 14, 2012

  Actual Average (KFNT) Record (KFNT)
Temperature  
Mean Temperature 28 °F 40 °F  
Max Temperature 39 °F 48 °F 66 °F (2009)
Min Temperature 18 °F 32 °F 12 °F (1986)
Degree Days  
Heating Degree Days 36 25  
Month to date heating degree days 322  
Since 1 July heating degree days 1018  
Cooling Degree Days 0 0  
Month to date cooling degree days 0  
Year to date cooling degree days 531  
Moisture  
Dew Point 24 °F    
Average Humidity 82    
Maximum Humidity 100    
Minimum Humidity 54    
Precipitation  
Precipitation 0.00 in 0.10 in 0.87 in (1957)
Month to date precipitation 1.27  
Year to date precipitation 28.05  
Snow  
Snow - 0.10 in 1.50 in (1974)
Month to date snowfall 0.5  
Since 1 July snowfall 0.9  
Since 1 September snowfall 0.9  
Snow Depth -    
Sea Level Pressure  
Sea Level Pressure 30.52 in    
Wind  
Wind Speed 1 mph ()    
Max Wind Speed 7 mph    
Max Gust Speed -    
Visibility 10.0 miles    
Events      
T = Trace of Precipitation, MM = Missing Value Source: Averaged Metar Reports

Daily Weather History Graph

Daily Weather History Graph

Search for Another Location

Airport:

Trip Planner

Search our weather history database for the weather conditions in past years. The results will help you decide how hot, cold, wet, or windy it might be!

Date:

Astronomy

Nov. 14, 2012 Rise Set
Actual Time 7:24 AM EST 5:09 PM EST
Civil Twilight 6:54 AM EST 5:40 PM EST
Nautical Twilight 6:20 AM EST 6:14 PM EST
Astronomical Twilight 5:46 AM EST 6:48 PM EST
Moon 8:14 AM EST (11/14) 5:55 PM EST (11/14)
Length of Visible Light 10h 45m
Length of Day
9h 44m
New Moon, 1% of the Moon is Illuminated
Nov 14
New Moon
Nov 20
First Quarter
Nov 28
Full
Dec 6
Last Quarter
Dec 13
New

Hourly Weather History & Observations

Time (EST) Temp. Windchill Dew Point Humidity Pressure Visibility Wind Dir Wind Speed Gust Speed Precip Events Conditions
12:13 AM 22.6 °F - 22.6 °F 100% 30.53 in 10.0 mi Calm Calm - N/A   Clear
12:33 AM 22.5 °F - 22.5 °F 100% 30.53 in 10.0 mi Calm Calm - N/A   Clear
12:53 AM 22.1 °F - 22.1 °F 100% 30.54 in 10.0 mi Calm Calm - N/A   Clear
1:13 AM 21.6 °F - 21.6 °F 100% 30.54 in 10.0 mi Calm Calm - N/A   Clear
1:33 AM 21.7 °F - 21.7 °F 100% 30.54 in 10.0 mi Calm Calm - N/A   Clear
1:53 AM 21.2 °F - 21.2 °F 100% 30.54 in 10.0 mi Calm Calm - N/A   Clear
2:13 AM 21.4 °F - 21.4 °F 100% 30.55 in 10.0 mi Calm Calm - N/A   Clear
2:33 AM 21.2 °F - 21.2 °F 100% 30.55 in 10.0 mi Calm Calm - N/A   Clear
2:53 AM 20.7 °F - 20.7 °F 100% 30.55 in 10.0 mi Calm Calm - N/A   Clear
3:13 AM 20.3 °F - 20.3 °F 100% 30.55 in 10.0 mi Calm Calm - N/A   Clear
3:33 AM 20.3 °F - 20.3 °F 100% 30.55 in 10.0 mi Calm Calm - N/A   Clear
3:53 AM 20.1 °F - 20.1 °F 100% 30.55 in 10.0 mi Calm Calm - N/A   Clear
4:13 AM 20.1 °F - 20.1 °F 100% 30.55 in 10.0 mi Calm Calm - N/A   Clear
4:33 AM 20.1 °F - 20.1 °F 100% 30.55 in 10.0 mi Calm Calm - N/A   Clear
4:53 AM 19.2 °F - 19.2 °F 100% 30.55 in 10.0 mi Calm Calm - N/A   Clear
5:13 AM 18.3 °F - 18.3 °F 100% 30.56 in 10.0 mi Calm Calm - N/A   Clear
5:33 AM 18.5 °F - 18.5 °F 100% 30.56 in 10.0 mi Calm Calm - N/A   Clear
5:53 AM 19.2 °F - 19.2 °F 100% 30.56 in 10.0 mi Calm Calm - N/A   Clear
6:13 AM 19.2 °F - 19.2 °F 100% 30.56 in 10.0 mi Calm Calm - N/A   Clear
6:33 AM 19.2 °F - 19.2 °F 100% 30.56 in 10.0 mi Calm Calm - N/A   Clear
6:53 AM 19.0 °F - 19.0 °F 100% 30.57 in 10.0 mi Calm Calm - N/A   Clear
7:13 AM 19.0 °F - 19.0 °F 100% 30.57 in 10.0 mi Calm Calm - N/A   Clear
7:33 AM 18.5 °F - 18.5 °F 100% 30.57 in 10.0 mi Calm Calm - N/A   Clear
7:53 AM 19.2 °F - 19.2 °F 100% 30.57 in 10.0 mi Calm Calm - N/A   Clear
8:13 AM 21.2 °F - 21.2 °F 100% 30.57 in 10.0 mi Calm Calm - N/A   Clear
8:33 AM 22.6 °F - 22.6 °F 100% 30.58 in 10.0 mi Calm Calm - N/A   Clear
8:53 AM 24.8 °F - 24.8 °F 100% 30.58 in 10.0 mi Calm Calm - N/A   Clear
9:13 AM 27.7 °F - 25.7 °F 92% 30.58 in 10.0 mi Calm Calm - N/A   Clear
9:33 AM 30.2 °F - 26.4 °F 86% 30.58 in 10.0 mi Calm Calm - N/A   Clear
9:53 AM 32.2 °F - 25.2 °F 75% 30.58 in 10.0 mi Calm Calm - N/A   Clear
10:13 AM 33.3 °F - 22.8 °F 66% 30.58 in 10.0 mi Calm Calm - N/A   Clear
10:33 AM 34.2 °F - 22.3 °F 62% 30.58 in 10.0 mi North - - N/A   Clear
10:53 AM 34.7 °F - 20.7 °F 57% 30.58 in 10.0 mi Calm Calm - N/A   Clear
11:14 AM 35.2 °F - 21.6 °F 58% 30.57 in 10.0 mi Calm Calm - N/A   Clear
11:33 AM 36.0 °F 33.3 °F 21.7 °F 56% 30.57 in 10.0 mi South 3.5 mph - N/A   Clear
11:53 AM 36.0 °F - 21.4 °F 55% 30.56 in 10.0 mi Calm Calm - N/A   Clear
12:13 PM 36.7 °F - 21.4 °F 54% 30.55 in 10.0 mi Calm Calm - N/A   Clear
12:33 PM 37.8 °F 34.2 °F 23.4 °F 56% 30.54 in 10.0 mi South 4.6 mph - N/A   Clear
12:53 PM 37.2 °F - 22.3 °F 55% 30.53 in 10.0 mi Calm Calm - N/A   Clear
1:13 PM 37.2 °F 33.6 °F 23.7 °F 58% 30.53 in 10.0 mi SW 4.6 mph - N/A   Clear
1:33 PM 37.8 °F - 23.7 °F 57% 30.52 in 10.0 mi Calm Calm - N/A   Clear
1:53 PM 37.9 °F - 23.2 °F 55% 30.52 in 10.0 mi Calm Calm - N/A   Clear
2:13 PM 39.2 °F 35.9 °F 24.6 °F 56% 30.51 in 10.0 mi SSW 4.6 mph - N/A   Clear
2:33 PM 39.2 °F 35.9 °F 24.3 °F 55% 30.50 in 10.0 mi SSE 4.6 mph - N/A   Clear
2:53 PM 39.6 °F 34.7 °F 24.8 °F 56% 30.49 in 10.0 mi South 6.9 mph - N/A   Clear
3:13 PM 39.4 °F 37.2 °F 25.2 °F 57% 30.48 in 10.0 mi South 3.5 mph - N/A   Clear
3:33 PM 39.6 °F 35.4 °F 25.5 °F 57% 30.48 in 10.0 mi SSE 5.8 mph - N/A   Clear
3:53 PM 39.6 °F 37.4 °F 25.9 °F 58% 30.48 in 10.0 mi SSE 3.5 mph - N/A   Clear
4:13 PM 39.4 °F - 26.8 °F 61% 30.47 in 10.0 mi Calm Calm - N/A   Clear
4:33 PM 38.8 °F - 26.2 °F 61% 30.48 in 10.0 mi Calm Calm - N/A   Clear
4:53 PM 37.9 °F - 25.5 °F 61% 30.47 in 10.0 mi Calm Calm - N/A   Clear
5:13 PM 36.7 °F - 26.2 °F 66% 30.47 in 10.0 mi Calm Calm - N/A   Clear
5:33 PM 36.5 °F 33.9 °F 26.2 °F 66% 30.47 in 10.0 mi ESE 3.5 mph - N/A   Clear
5:54 PM 35.1 °F 32.2 °F 27.1 °F 73% 30.47 in 10.0 mi SE 3.5 mph - N/A   Clear
6:13 PM 34.3 °F - 27.0 °F 74% 30.48 in 10.0 mi Calm Calm - N/A   Clear
6:33 PM 33.4 °F 30.4 °F 27.7 °F 79% 30.47 in 10.0 mi SE 3.5 mph - N/A   Clear
6:54 PM 34.0 °F - 27.9 °F 78% 30.48 in 10.0 mi Calm Calm - N/A   Clear
7:13 PM 33.3 °F 28.9 °F 28.2 °F 82% 30.47 in 10.0 mi SSE 4.6 mph - N/A   Clear
7:33 PM 34.0 °F - 27.9 °F 78% 30.47 in 10.0 mi Calm Calm - N/A   Clear
7:53 PM 33.8 °F 30.8 °F 27.9 °F 79% 30.47 in 10.0 mi SSE 3.5 mph - N/A   Clear
8:13 PM 33.6 °F 29.4 °F 27.9 °F 79% 30.47 in 10.0 mi SE 4.6 mph - N/A   Clear
8:33 PM 33.8 °F - 27.5 °F 78% 30.46 in 10.0 mi Calm Calm - N/A   Clear
8:53 PM 33.4 °F - 27.5 °F 79% 30.47 in 10.0 mi Calm Calm - N/A   Clear
9:33 PM 32.0 °F - 28.0 °F 85% 30.45 in 10.0 mi Calm Calm - N/A   Clear
9:53 PM 32.0 °F - 27.5 °F 83% 30.45 in 10.0 mi Calm Calm - N/A   Clear
10:13 PM 31.5 °F - 30.9 °F 98% 30.44 in 10.0 mi Calm Calm - N/A   Clear
10:33 PM 31.1 °F - 31.1 °F 100% 30.44 in 10.0 mi Calm Calm - N/A   Clear
10:53 PM 30.4 °F - 30.4 °F 100% 30.44 in 10.0 mi Calm Calm - N/A   Clear
11:13 PM 30.6 °F - 30.6 °F 100% 30.44 in 10.0 mi Calm Calm - N/A   Scattered Clouds
11:33 PM 30.2 °F - 30.2 °F 100% 30.43 in 10.0 mi Calm Calm - N/A   Scattered Clouds
11:53 PM 30.7 °F - 30.7 °F 100% 30.43 in 10.0 mi Calm Calm - N/A   Scattered Clouds